QPF
0.08 0.11 0.13 0.11 0.08 0.06 0.04 0.04 0.04 0.04 0.05 0.08 0.08 0.07 0.06 0.07 0.06 0.06 0.06 0.08 0.09 0.09 0.09 0.07 0.06 0.05 0.05 0.05 0.05 0.05 0.05 0.03 0.02 0.02 0.02 0.02 0.02 0.02 0.02 0.03 0.03 0.03 0.03
0.10 0.12 0.16 0.10 0.07 0.05 0.05 0.06 0.06 0.06 0.05 0.05 0.06 0.08 0.07 0.07 0.07 0.08 0.09 0.11 0.12 0.11 0.09 0.08 0.08 0.07 0.06 0.06 0.06 0.06 0.06 0.04 0.03 0.02 0.02 0.02 0.01 0.01 0.01 0.02 0.02 0.03 0.03
0.14 0.14 0.13 0.09 0.06 0.04 0.05 0.06 0.08 0.08 0.07 0.07 0.07 0.07 0.06 0.06 0.06 0.09 0.11 0.11 0.11 0.10 0.09 0.07 0.08 0.07 0.05 0.06 0.07 0.07 0.07 0.06 0.04 0.03 0.02 0.02 0.02 0.02 0.02 0.02 0.02 0.03 0.03
0.12 0.11 0.10 0.08 0.06 0.04 0.04 0.06 0.09 0.09 0.08 0.07 0.07 0.07 0.06 0.05 0.04 0.05 0.07 0.07 0.06 0.07 0.05 0.05 0.05 0.05 0.06 0.07 0.09 0.08 0.08 0.07 0.05 0.03 0.02 0.02 0.02 0.03 0.03 0.03 0.03 0.04 0.03
0.10 0.13 0.13 0.09 0.06 0.05 0.05 0.05 0.07 0.08 0.08 0.07 0.07 0.06 0.05 0.03 0.04 0.04 0.05 0.06 0.05 0.05 0.04 0.03 0.04 0.04 0.05 0.07 0.09 0.09 0.08 0.08 0.07 0.05 0.03 0.03 0.03 0.04 0.04 0.04 0.03 0.04 0.06
0.07 0.10 0.13 0.10 0.07 0.06 0.06 0.06 0.07 0.06 0.06 0.07 0.08 0.08 0.08 0.06 0.05 0.05 0.05 0.05 0.05 0.05 0.04 0.03 0.02 0.03 0.05 0.07 0.10 0.09 0.08 0.09 0.08 0.05 0.04 0.04 0.04 0.04 0.04 0.05 0.04 0.05 0.07
0.06 0.07 0.09 0.10 0.09 0.07 0.06 0.05 0.05 0.05 0.05 0.06 0.08 0.08 0.08 0.07 0.08 0.08 0.07 0.06 0.06 0.06 0.06 0.05 0.03 0.03 0.04 0.06 0.08 0.08 0.07 0.07 0.07 0.07 0.06 0.05 0.04 0.03 0.02 0.02 0.03 0.05 0.08
0.06 0.08 0.10 0.12 0.11 0.09 0.07 0.06 0.05 0.05 0.06 0.07 0.06 0.06 0.07 0.08 0.09 0.08 0.07 0.06 0.06 0.06 0.05 0.05 0.05 0.04 0.03 0.04 0.04 0.04 0.06 0.07 0.08 0.08 0.07 0.06 0.04 0.03 0.03 0.03 0.03 0.04 0.05
0.05 0.07 0.08 0.08 0.08 0.08 0.07 0.06 0.06 0.04 0.06 0.07 0.07 0.05 0.04 0.05 0.07 0.08 0.08 0.06 0.06 0.05 0.04 0.04 0.05 0.03 0.03 0.04 0.04 0.04 0.05 0.05 0.07 0.09 0.10 0.07 0.05 0.04 0.04 0.04 0.05 0.04 0.03
0.05 0.06 0.07 0.07 0.06 0.06 0.06 0.06 0.05 0.05 0.05 0.06 0.06 0.06 0.05 0.05 0.05 0.06 0.06 0.05 0.05 0.04 0.04 0.05 0.05 0.05 0.05 0.07 0.06 0.06 0.05 0.04 0.04 0.06 0.08 0.08 0.05 0.04 0.04 0.04 0.04 0.04 0.03
0.05 0.05 0.07 0.07 0.07 0.05 0.05 0.05 0.04 0.05 0.06 0.06 0.04 0.05 0.07 0.06 0.06 0.05 0.04 0.04 0.04 0.05 0.06 0.05 0.04 0.07 0.09 0.10 0.09 0.06 0.04 0.03 0.04 0.05 0.07 0.08 0.07 0.06 0.06 0.05 0.05 0.04 0.04
0.05 0.06 0.07 0.06 0.05 0.04 0.03 0.03 0.04 0.04 0.04 0.04 0.03 0.04 0.05 0.06 0.08 0.08 0.04 0.02 0.02 0.03 0.03 0.04 0.04 0.07 0.07 0.06 0.05 0.05 0.04 0.04 0.05 0.05 0.06 0.06 0.07 0.06 0.06 0.07 0.07 0.07 0.06
0.04 0.04 0.06 0.04 0.05 0.05 0.06 0.06 0.05 0.04 0.03 0.03 0.03 0.04 0.04 0.05 0.08 0.07 0.05 0.04 0.03 0.02 0.03 0.04 0.04 0.04 0.04 0.04 0.05 0.05 0.04 0.04 0.05 0.04 0.03 0.04 0.04 0.04 0.04 0.06 0.08 0.08 0.07
0.03 0.03 0.02 0.02 0.02 0.04 0.08 0.10 0.09 0.08 0.07 0.07 0.07 0.06 0.05 0.05 0.07 0.07 0.06 0.06 0.04 0.03 0.02 0.03 0.04 0.05 0.06 0.06 0.06 0.07 0.05 0.04 0.03 0.03 0.03 0.03 0.04 0.04 0.04 0.05 0.06 0.07 0.07
0.03 0.02 0.02 0.02 0.02 0.03 0.04 0.05 0.07 0.09 0.10 0.10 0.10 0.10 0.10 0.07 0.06 0.07 0.06 0.05 0.05 0.05 0.04 0.03 0.03 0.04 0.03 0.03 0.02 0.02 0.02 0.02 0.02 0.02 0.03 0.04 0.05 0.04 0.04 0.05 0.05 0.04 0.04
0.04 0.03 0.03 0.04 0.04 0.05 0.06 0.05 0.03 0.03 0.03 0.04 0.05 0.07 0.08 0.05 0.03 0.04 0.04 0.04 0.05 0.06 0.04 0.03 0.03 0.02 0.02 0.02 0.02 0.02 0.02 0.02 0.03 0.03 0.03 0.04 0.04 0.04 0.04 0.05 0.04 0.03 0.02
0.04 0.04 0.04 0.05 0.06 0.07 0.07 0.07 0.05 0.03 0.02 0.02 0.02 0.03 0.05 0.06 0.04 0.04 0.04 0.03 0.05 0.07 0.08 0.08 0.06 0.04 0.03 0.03 0.02 0.02 0.02 0.02 0.02 0.02 0.02 0.03 0.03 0.04 0.05 0.06 0.05 0.04 0.02
0.05 0.05 0.06 0.05 0.04 0.04 0.04 0.04 0.04 0.05 0.04 0.04 0.03 0.03 0.03 0.05 0.05 0.06 0.04 0.04 0.05 0.08 0.13 0.15 0.14 0.11 0.07 0.04 0.02 0.02 0.02 0.02 0.02 0.03 0.03 0.02 0.02 0.03 0.05 0.06 0.05 0.04 0.03
0.07 0.07 0.07 0.06 0.05 0.04 0.03 0.03 0.04 0.04 0.05 0.05 0.06 0.07 0.05 0.05 0.05 0.06 0.04 0.04 0.07 0.08 0.14 0.17 0.16 0.15 0.15 0.09 0.05 0.03 0.03 0.03 0.03 0.03 0.04 0.03 0.03 0.03 0.05 0.06 0.06 0.05 0.04
0.06 0.06 0.05 0.03 0.03 0.03 0.02 0.02 0.02 0.03 0.03 0.04 0.05 0.07 0.06 0.05 0.05 0.06 0.05 0.06 0.10 0.10 0.12 0.14 0.14 0.15 0.19 0.16 0.11 0.08 0.06 0.05 0.05 0.05 0.06 0.05 0.05 0.06 0.06 0.07 0.07 0.06 0.05
0.07 0.07 0.06 0.03 0.03 0.03 0.02 0.01 0.02 0.02 0.02 0.02 0.03 0.03 0.04 0.05 0.05 0.06 0.06 0.08 0.10 0.11 0.09 0.08 0.10 0.13 0.16 0.17 0.15 0.12 0.09 0.08 0.08 0.06 0.08 0.07 0.07 0.07 0.08 0.10 0.10 0.09 0.08
0.08 0.08 0.07 0.04 0.03 0.03 0.02 0.02 0.02 0.02 0.02 0.02 0.03 0.04 0.05 0.06 0.06 0.07 0.08 0.09 0.11 0.12 0.09 0.07 0.07 0.08 0.11 0.14 0.17 0.16 0.13 0.12 0.11 0.10 0.10 0.09 0.08 0.08 0.07 0.08 0.09 0.09 0.08
0.09 0.07 0.06 0.04 0.02 0.02 0.02 0.02 0.02 0.02 0.02 0.02 0.02 0.03 0.04 0.04 0.05 0.06 0.07 0.08 0.08 0.10 0.11 0.10 0.08 0.08 0.08 0.09 0.13 0.14 0.13 0.12 0.10 0.12 0.14 0.12 0.10 0.09 0.08 0.08 0.08 0.09 0.09
0.09 0.06 0.05 0.04 0.02 0.02 0.02 0.02 0.02 0.02 0.01 0.02 0.02 0.03 0.04 0.04 0.05 0.06 0.06 0.08 0.08 0.08 0.09 0.10 0.08 0.08 0.07 0.08 0.10 0.11 0.11 0.11 0.10 0.11 0.14 0.14 0.12 0.11 0.10 0.09 0.09 0.10 0.10
0.10 0.08 0.07 0.06 0.05 0.04 0.04 0.03 0.03 0.03 0.02 0.02 0.02 0.02 0.03 0.03 0.04 0.06 0.05 0.06 0.07 0.07 0.08 0.08 0.07 0.06 0.06 0.06 0.08 0.09 0.09 0.10 0.09 0.10 0.11 0.13 0.10 0.09 0.09 0.10 0.10 0.11 0.11
0.15 0.12 0.09 0.07 0.06 0.05 0.06 0.04 0.04 0.04 0.03 0.02 0.02 0.03 0.04 0.04 0.04 0.05 0.05 0.06 0.07 0.06 0.06 0.06 0.06 0.04 0.04 0.04 0.06 0.07 0.08 0.09 0.08 0.07 0.06 0.09 0.10 0.09 0.08 0.07 0.08 0.09 0.10
MSLP
1013.22 1013.34 1013.43 1013.51 1013.59 1013.69 1013.80 1013.92 1014.02 1014.09 1014.12 1014.12 1014.10 1014.08 1014.08 1014.13 1014.25 1014.42 1014.65 1014.91 1015.19 1015.47 1015.75 1016.01 1016.26 1016.51 1016.74 1016.97 1017.17 1017.36 1017.52 1017.65 1017.76 1017.85 1017.95 1018.06 1018.18 1018.33 1018.48 1018.63 1018.77 1018.89 1018.98
1013.20 1013.34 1013.45 1013.56 1013.67 1013.79 1013.91 1014.03 1014.14 1014.22 1014.27 1014.27 1014.25 1014.23 1014.21 1014.21 1014.27 1014.37 1014.52 1014.72 1014.96 1015.23 1015.51 1015.80 1016.09 1016.36 1016.62 1016.84 1017.03 1017.18 1017.28 1017.35 1017.41 1017.46 1017.52 1017.61 1017.73 1017.88 1018.04 1018.21 1018.38 1018.53 1018.66
1013.13 1013.29 1013.44 1013.58 1013.72 1013.86 1014.01 1014.16 1014.28 1014.38 1014.44 1014.46 1014.45 1014.42 1014.39 1014.36 1014.36 1014.39 1014.47 1014.61 1014.79 1015.03 1015.30 1015.60 1015.91 1016.21 1016.48 1016.70 1016.87 1016.98 1017.04 1017.06 1017.06 1017.06 1017.08 1017.14 1017.24 1017.37 1017.54 1017.71 1017.89 1018.07 1018.23
1013.04 1013.21 1013.38 1013.56 1013.74 1013.93 1014.11 1014.28 1014.43 1014.55 1014.63 1014.68 1014.69 1014.67 1014.63 1014.59 1014.55 1014.54 1014.56 1014.64 1014.77 1014.97 1015.21 1015.50 1015.81 1016.11 1016.38 1016.60 1016.76 1016.84 1016.86 1016.83 1016.78 1016.74 1016.72 1016.73 1016.79 1016.89 1017.03 1017.19 1017.36 1017.53 1017.71
1012.91 1013.09 1013.29 1013.50 1013.73 1013.96 1014.18 1014.38 1014.56 1014.70 1014.81 1014.89 1014.94 1014.95 1014.94 1014.91 1014.87 1014.84 1014.83 1014.87 1014.96 1015.12 1015.33 1015.59 1015.88 1016.17 1016.42 1016.62 1016.75 1016.81 1016.80 1016.74 1016.65 1016.56 1016.49 1016.46 1016.47 1016.52 1016.60 1016.72 1016.85 1017.00 1017.15
1012.78 1012.95 1013.17 1013.42 1013.69 1013.96 1014.21 1014.44 1014.65 1014.82 1014.97 1015.08 1015.18 1015.25 1015.29 1015.31 1015.31 1015.30 1015.30 1015.33 1015.40 1015.52 1015.70 1015.92 1016.17 1016.42 1016.65 1016.82 1016.92 1016.95 1016.91 1016.82 1016.70 1016.58 1016.47 1016.39 1016.34 1016.32 1016.34 1016.38 1016.45 1016.53 1016.64
1012.65 1012.81 1013.04 1013.31 1013.62 1013.92 1014.21 1014.46 1014.68 1014.88 1015.05 1015.22 1015.37 1015.51 1015.64 1015.74 1015.82 1015.88 1015.93 1015.98 1016.06 1016.16 1016.31 1016.49 1016.69 1016.89 1017.06 1017.19 1017.25 1017.25 1017.19 1017.09 1016.95 1016.80 1016.66 1016.53 1016.43 1016.35 1016.29 1016.25 1016.23 1016.23 1016.25
1012.54 1012.68 1012.92 1013.21 1013.54 1013.86 1014.17 1014.43 1014.66 1014.88 1015.08 1015.28 1015.49 1015.72 1015.94 1016.15 1016.34 1016.50 1016.63 1016.74 1016.85 1016.96 1017.09 1017.23 1017.37 1017.51 1017.62 1017.69 1017.72 1017.68 1017.60 1017.48 1017.33 1017.17 1017.02 1016.87 1016.73 1016.59 1016.46 1016.33 1016.22 1016.12 1016.05
1012.46 1012.60 1012.83 1013.13 1013.47 1013.81 1014.11 1014.38 1014.61 1014.82 1015.03 1015.27 1015.53 1015.84 1016.16 1016.49 1016.80 1017.07 1017.31 1017.50 1017.66 1017.79 1017.91 1018.01 1018.10 1018.18 1018.23 1018.24 1018.21 1018.14 1018.04 1017.91 1017.77 1017.61 1017.46 1017.31 1017.15 1016.98 1016.80 1016.61 1016.42 1016.24 1016.06
1012.42 1012.55 1012.79 1013.10 1013.45 1013.78 1014.08 1014.33 1014.54 1014.74 1014.95 1015.20 1015.50 1015.86 1016.27 1016.70 1017.12 1017.51 1017.85 1018.13 1018.35 1018.51 1018.63 1018.71 1018.76 1018.77 1018.76 1018.71 1018.63 1018.53 1018.40 1018.27 1018.13 1018.00 1017.87 1017.73 1017.58 1017.41 1017.22 1017.00 1016.76 1016.51 1016.27
1012.39 1012.54 1012.79 1013.12 1013.47 1013.80 1014.09 1014.32 1014.50 1014.67 1014.86 1015.11 1015.42 1015.82 1016.28 1016.79 1017.30 1017.78 1018.21 1018.56 1018.83 1019.03 1019.15 1019.21 1019.22 1019.19 1019.12 1019.01 1018.89 1018.75 1018.60 1018.46 1018.34 1018.23 1018.13 1018.03 1017.92 1017.78 1017.61 1017.39 1017.15 1016.87 1016.59
1012.34 1012.53 1012.81 1013.16 1013.53 1013.86 1014.14 1014.36 1014.52 1014.66 1014.82 1015.04 1015.35 1015.75 1016.24 1016.77 1017.33 1017.87 1018.35 1018.75 1019.07 1019.29 1019.42 1019.47 1019.46 1019.39 1019.27 1019.12 1018.95 1018.77 1018.61 1018.46 1018.34 1018.25 1018.19 1018.13 1018.07 1017.99 1017.86 1017.69 1017.47 1017.21 1016.93
1012.24 1012.49 1012.83 1013.21 1013.60 1013.96 1014.24 1014.45 1014.59 1014.71 1014.85 1015.05 1015.33 1015.71 1016.18 1016.71 1017.28 1017.83 1018.33 1018.75 1019.09 1019.33 1019.47 1019.52 1019.49 1019.40 1019.25 1019.07 1018.86 1018.65 1018.46 1018.30 1018.17 1018.09 1018.05 1018.04 1018.02 1017.99 1017.93 1017.82 1017.65 1017.44 1017.19
1012.05 1012.37 1012.77 1013.22 1013.65 1014.04 1014.35 1014.57 1014.73 1014.84 1014.97 1015.14 1015.39 1015.74 1016.17 1016.67 1017.21 1017.73 1018.22 1018.64 1018.98 1019.22 1019.37 1019.42 1019.40 1019.30 1019.14 1018.94 1018.71 1018.48 1018.25 1018.06 1017.92 1017.83 1017.79 1017.79 1017.81 1017.82 1017.81 1017.76 1017.66 1017.50 1017.31
1011.73 1012.14 1012.62 1013.13 1013.63 1014.07 1014.43 1014.70 1014.88 1015.02 1015.16 1015.32 1015.55 1015.86 1016.25 1016.70 1017.18 1017.66 1018.12 1018.51 1018.83 1019.07 1019.23 1019.30 1019.29 1019.21 1019.06 1018.86 1018.62 1018.36 1018.11 1017.88 1017.70 1017.58 1017.51 1017.49 1017.51 1017.54 1017.56 1017.55 1017.49 1017.39 1017.25
1011.30 1011.79 1012.34 1012.92 1013.49 1014.01 1014.44 1014.78 1015.03 1015.22 1015.39 1015.57 1015.80 1016.08 1016.43 1016.83 1017.25 1017.68 1018.08 1018.44 1018.75 1018.99 1019.16 1019.25 1019.28 1019.23 1019.11 1018.92 1018.69 1018.41 1018.13 1017.86 1017.63 1017.45 1017.33 1017.26 1017.24 1017.25 1017.25 1017.25 1017.21 1017.13 1017.02
1010.76 1011.31 1011.93 1012.58 1013.23 1013.83 1014.35 1014.77 1015.11 1015.38 1015.61 1015.83 1016.08 1016.36 1016.68 1017.04 1017.41 1017.79 1018.15 1018.48 1018.76 1019.01 1019.20 1019.33 1019.40 1019.39 1019.32 1019.17 1018.95 1018.69 1018.38 1018.08 1017.78 1017.53 1017.33 1017.19 1017.09 1017.03 1016.98 1016.94 1016.88 1016.80 1016.69
1010.17 1010.75 1011.42 1012.14 1012.86 1013.54 1014.16 1014.68 1015.11 1015.47 1015.77 1016.06 1016.34 1016.64 1016.96 1017.29 1017.63 1017.97 1018.29 1018.60 1018.88 1019.12 1019.34 1019.51 1019.63 1019.69 1019.67 1019.57 1019.39 1019.13 1018.83 1018.49 1018.15 1017.82 1017.54 1017.29 1017.10 1016.94 1016.81 1016.69 1016.57 1016.45 1016.31
1009.58 1010.18 1010.88 1011.65 1012.43 1013.19 1013.88 1014.49 1015.02 1015.47 1015.85 1016.20 1016.53 1016.86 1017.19 1017.52 1017.84 1018.16 1018.46 1018.75 1019.03 1019.29 1019.53 1019.74 1019.91 1020.02 1020.06 1020.02 1019.89 1019.67 1019.37 1019.03 1018.65 1018.27 1017.90 1017.57 1017.27 1017.00 1016.77 1016.55 1016.34 1016.14 1015.95
1009.07 1009.66 1010.38 1011.17 1012.00 1012.81 1013.57 1014.26 1014.86 1015.38 1015.84 1016.25 1016.62 1016.98 1017.33 1017.67 1017.99 1018.30 1018.60 1018.89 1019.16 1019.43 1019.69 1019.93 1020.14 1020.30 1020.40 1020.41 1020.33 1020.16 1019.89 1019.56 1019.17 1018.76 1018.34 1017.93 1017.54 1017.17 1016.83 1016.50 1016.20 1015.91 1015.64
1008.69 1009.27 1009.98 1010.79 1011.64 1012.48 1013.28 1014.01 1014.66 1015.23 1015.73 1016.19 1016.60 1017.00 1017.37 1017.72 1018.06 1018.37 1018.67 1018.96 1019.23 1019.50 1019.77 1020.02 1020.25 1020.44 1020.57 1020.63 1020.61 1020.48 1020.26 1019.97 1019.60 1019.18 1018.74 1018.29 1017.83 1017.39 1016.95 1016.53 1016.13 1015.75 1015.40
1008.49 1009.04 1009.75 1010.55 1011.40 1012.25 1013.06 1013.80 1014.46 1015.05 1015.58 1016.05 1016.50 1016.92 1017.31 1017.69 1018.04 1018.36 1018.67 1018.95 1019.22 1019.48 1019.73 1019.98 1020.20 1020.40 1020.55 1020.64 1020.65 1020.57 1020.41 1020.16 1019.84 1019.45 1019.03 1018.56 1018.08 1017.59 1017.09 1016.60 1016.12 1015.66 1015.23
1008.48 1009.02 1009.71 1010.49 1011.32 1012.15 1012.93 1013.66 1014.31 1014.89 1015.41 1015.89 1016.35 1016.79 1017.21 1017.60 1017.97 1018.32 1018.63 1018.91 1019.16 1019.40 1019.62 1019.83 1020.03 1020.20 1020.34 1020.43 1020.46 1020.42 1020.31 1020.13 1019.86 1019.53 1019.14 1018.71 1018.23 1017.72 1017.20 1016.66 1016.12 1015.60 1015.11
1008.66 1009.19 1009.86 1010.61 1011.41 1012.19 1012.93 1013.61 1014.22 1014.77 1015.28 1015.76 1016.22 1016.67 1017.11 1017.53 1017.93 1018.29 1018.60 1018.88 1019.11 1019.31 1019.49 1019.65 1019.79 1019.91 1020.01 1020.08 1020.11 1020.10 1020.03 1019.89 1019.69 1019.42 1019.09 1018.70 1018.26 1017.77 1017.24 1016.68 1016.11 1015.55 1015.02
1008.99 1009.52 1010.16 1010.88 1011.62 1012.34 1013.02 1013.64 1014.21 1014.72 1015.21 1015.68 1016.15 1016.62 1017.08 1017.53 1017.95 1018.33 1018.65 1018.92 1019.13 1019.29 1019.41 1019.50 1019.57 1019.62 1019.67 1019.69 1019.70 1019.69 1019.63 1019.54 1019.39 1019.18 1018.91 1018.57 1018.17 1017.71 1017.20 1016.65 1016.07 1015.49 1014.93
1009.44 1009.96 1010.58 1011.25 1011.93 1012.58 1013.19 1013.75 1014.27 1014.75 1015.22 1015.69 1016.17 1016.66 1017.15 1017.63 1018.07 1018.47 1018.79 1019.05 1019.23 1019.34 1019.41 1019.42 1019.42 1019.40 1019.37 1019.35 1019.32 1019.28 1019.23 1019.15 1019.04 1018.87 1018.65 1018.36 1018.00 1017.57 1017.09 1016.54 1015.97 1015.38 1014.81
Thickness
5768 5768 5768 5767 5767 5767 5767 5766 5766 5766 5766 5765 5764 5763 5762 5761 5760 5759 5757 5756 5755 5753 5752 5751 5749 5748 5746 5744 5743 5741 5739 5737 5736 5735 5734 5732 5731 5729 5728 5726 5724 5723 5722
5768 5768 5768 5767 5767 5766 5766 5766 5766 5765 5765 5764 5764 5763 5762 5761 5760 5759 5757 5756 5755 5753 5752 5751 5749 5748 5746 5745 5743 5741 5739 5738 5737 5735 5734 5732 5731 5729 5728 5726 5724 5723 5721
5768 5768 5768 5767 5767 5766 5766 5766 5765 5764 5764 5763 5762 5762 5761 5760 5759 5758 5757 5756 5754 5753 5752 5750 5749 5748 5746 5745 5743 5742 5740 5738 5737 5736 5734 5732 5731 5729 5728 5726 5724 5722 5721
5768 5768 5768 5767 5767 5766 5765 5764 5763 5762 5761 5760 5760 5760 5760 5759 5759 5757 5757 5755 5754 5752 5751 5750 5749 5748 5746 5745 5744 5742 5741 5739 5737 5736 5734 5733 5731 5729 5727 5725 5723 5722 5720
5769 5768 5767 5767 5767 5766 5765 5764 5762 5761 5759 5758 5758 5759 5759 5758 5757 5757 5756 5755 5753 5752 5751 5749 5748 5747 5746 5745 5744 5742 5741 5739 5738 5737 5735 5733 5731 5729 5727 5725 5723 5721 5720
5769 5768 5767 5767 5766 5765 5764 5763 5761 5761 5759 5758 5758 5757 5757 5757 5757 5756 5755 5754 5753 5751 5750 5749 5748 5747 5746 5745 5743 5742 5740 5739 5738 5736 5735 5733 5731 5729 5727 5725 5723 5721 5719
5769 5768 5767 5766 5766 5764 5763 5762 5761 5758 5757 5757 5753 5751 5753 5755 5755 5755 5755 5753 5752 5751 5750 5749 5748 5746 5746 5744 5743 5742 5740 5739 5738 5736 5734 5732 5730 5728 5726 5724 5722 5720 5719
5769 5768 5767 5766 5765 5763 5761 5760 5759 5756 5755 5755 5750 5745 5741 5744 5750 5754 5753 5752 5752 5751 5750 5749 5747 5746 5745 5744 5743 5741 5739 5738 5737 5736 5734 5731 5730 5728 5725 5723 5722 5720 5718
5769 5768 5767 5766 5764 5763 5760 5759 5758 5756 5752 5752 5752 5746 5738 5735 5740 5747 5750 5751 5751 5750 5750 5749 5747 5746 5745 5744 5742 5741 5739 5738 5737 5735 5733 5731 5729 5727 5725 5723 5721 5719 5717
5767 5766 5765 5764 5763 5761 5760 5759 5758 5756 5754 5750 5750 5751 5749 5745 5738 5737 5743 5747 5748 5748 5748 5748 5747 5746 5745 5743 5742 5740 5739 5737 5736 5735 5733 5731 5729 5726 5724 5722 5720 5718 5716
5766 5766 5765 5763 5761 5760 5759 5758 5757 5755 5753 5750 5749 5748 5747 5745 5743 5737 5734 5739 5742 5746 5747 5747 5746 5745 5744 5743 5741 5739 5738 5737 5735 5734 5732 5730 5728 5726 5723 5721 5719 5717 5715
5764 5764 5763 5762 5760 5759 5757 5756 5755 5753 5752 5750 5749 5747 5745 5742 5740 5737 5734 5734 5736 5741 5744 5745 5745 5744 5743 5742 5740 5739 5738 5736 5734 5733 5731 5729 5727 5725 5723 5721 5718 5716 5713
5760 5761 5761 5760 5759 5757 5756 5755 5753 5752 5750 5748 5747 5746 5745 5744 5743 5740 5736 5733 5732 5736 5739 5741 5742 5742 5742 5740 5738 5737 5736 5734 5733 5731 5729 5727 5726 5724 5721 5719 5716 5714 5711
5758 5759 5759 5758 5758 5756 5755 5753 5751 5749 5748 5747 5746 5745 5744 5744 5743 5740 5737 5732 5728 5729 5732 5735 5739 5739 5739 5738 5737 5735 5733 5732 5731 5729 5727 5725 5723 5721 5719 5716 5714 5711 5709
5758 5757 5757 5755 5754 5753 5752 5750 5748 5747 5746 5744 5743 5742 5741 5742 5741 5740 5738 5735 5728 5723 5724 5730 5732 5736 5736 5735 5735 5733 5731 5730 5728 5727 5724 5723 5721 5718 5716 5714 5712 5709 5706
5756 5755 5754 5752 5751 5750 5748 5747 5745 5745 5743 5742 5741 5740 5739 5739 5738 5737 5735 5733 5730 5725 5722 5728 5730 5732 5733 5733 5731 5729 5728 5726 5725 5723 5721 5720 5717 5715 5713 5711 5709 5706 5704
5753 5751 5750 5748 5747 5746 5745 5743 5742 5741 5740 5739 5738 5737 5735 5735 5734 5733 5732 5730 5728 5725 5721 5725 5728 5730 5729 5728 5727 5726 5724 5723 5721 5720 5718 5716 5714 5712 5710 5708 5706 5704 5701
5750 5748 5747 5745 5744 5742 5741 5739 5738 5737 5735 5734 5734 5733 5732 5732 5730 5729 5728 5726 5725 5724 5720 5719 5722 5723 5723 5723 5722 5720 5720 5719 5717 5716 5715 5713 5711 5709 5707 5706 5704 5701 5698
5746 5745 5743 5741 5739 5738 5737 5736 5734 5733 5732 5731 5731 5729 5728 5727 5725 5724 5723 5722 5721 5721 5718 5715 5715 5717 5717 5717 5715 5714 5714 5713 5713 5712 5710 5709 5707 5705 5704 5702 5700 5698 5695
5742 5740 5738 5737 5735 5734 5733 5731 5730 5729 5728 5727 5727 5726 5724 5723 5722 5720 5719 5717 5716 5714 5712 5710 5709 5709 5709 5710 5708 5706 5705 5705 5706 5707 5706 5704 5703 5701 5700 5698 5696 5694 5691
5737 5735 5733 5731 5730 5729 5728 5727 5726 5725 5723 5722 5721 5721 5721 5720 5719 5717 5715 5712 5710 5708 5705 5703 5702 5701 5701 5699 5699 5699 5698 5698 5698 5699 5698 5698 5697 5696 5694 5693 5691 5689 5687
5730 5728 5726 5725 5724 5724 5724 5723 5721 5719 5717 5716 5715 5714 5715 5714 5713 5712 5710 5708 5706 5702 5698 5696 5695 5693 5694 5693 5693 5692 5690 5688 5687 5691 5689 5689 5691 5690 5690 5688 5687 5685 5683
5723 5721 5719 5718 5717 5717 5717 5716 5715 5713 5711 5709 5708 5707 5708 5708 5706 5704 5703 5702 5700 5699 5696 5693 5689 5688 5688 5688 5686 5684 5682 5681 5681 5683 5680 5680 5682 5681 5683 5683 5682 5680 5678
5717 5714 5712 5711 5710 5710 5709 5709 5708 5705 5704 5703 5702 5701 5699 5699 5698 5696 5695 5693 5691 5690 5689 5688 5685 5684 5684 5683 5681 5679 5677 5675 5675 5675 5674 5671 5673 5673 5675 5675 5675 5673 5672
5709 5707 5705 5703 5701 5701 5701 5700 5699 5696 5695 5694 5694 5694 5693 5691 5691 5689 5686 5684 5682 5681 5682 5681 5679 5677 5677 5676 5674 5670 5666 5663 5663 5665 5665 5663 5664 5663 5665 5666 5667 5666 5664
5701 5699 5697 5696 5694 5693 5693 5691 5690 5687 5685 5685 5685 5685 5685 5683 5683 5681 5678 5675 5672 5672 5671 5670 5669 5668 5667 5666 5665 5662 5659 5655 5654 5654 5657 5654 5654 5652 5652 5656 5657 5656 5655